Location: Nitra
(0.0000°N, 18.0833°E)
Time: 00:23:38
(UTC+02:00)

RS-44 - Visible Passes

Search period start: 31 May 2024 00:00
Search period end: 10 June 2024 00:00
Orbit: 1174 x 1511 km, 82.5° (Epoch: 30 May)

Date Brightness Start Highest point End Pass type
(mag) Time Alt. Az. Time Alt. Az. Time Alt. Az.
31 May ? 02:35:42 10° NE 02:37:46 16° ENE 02:37:46 16° ENE visible
31 May ? 04:26:51 10° NNW 04:30:18 27° NW 04:30:18 27° NW visible
01 Jun ? 02:57:38 10° NNE 03:00:32 23° NE 03:00:32 23° NE visible
01 Jun ? 04:51:53 10° NW 04:53:04 14° NW 04:53:04 14° NW visible
02 Jun ? 03:20:36 10° N 03:23:24 25° N 03:23:24 25° N visible
03 Jun ? 03:44:16 10° NNW 03:46:21 21° NNW 03:46:21 21° NNW visible
04 Jun ? 02:16:36 10° NE 02:16:49 11° NE 02:16:49 11° NE visible
04 Jun ? 04:08:37 10° NNW 04:09:21 13° NNW 04:09:21 13° NNW visible
05 Jun ? 02:38:54 10° NNE 02:39:53 14° NNE 02:39:53 14° NNE visible
06 Jun ? 03:02:05 10° N 03:03:00 14° N 03:03:00 14° N visible
07 Jun ? 03:25:55 10° NNW 03:26:09 11° NNW 03:26:09 11° NNW visible
